Погода в Сортавале

Погода в Сортавале : погода сейчас, прогноз погоды и архив. Всё, что Вы хотите узнать о погоде в Сортавале!

Хотите узнать прогноз погоды в Сортавале? Тогда Вам сюда: Погода в Сортавале

Поиск расширенной информации на нашем сайте:

Другие новости

Новости СМИ2

Главная страница сайта

Новости сайта

03.07.2017

Напоминаем, что на нашем специализированном сайте Метеоцентр.Азия вы можете получить высокодетализированные автоматические прогнозы погоды по пунктам России, СНГ и мира в авиационном формате (включающие направление и скорость ветра, видимость, явления погоды, количество и форму облачности, нижнюю и верхнюю границу облачности).

Рекомендуем: Детальное описание автоваз официальный у нас.

Погода в Сортавале - сегодня

Время (UTC), дата Ветер
(°,м/с) 
Видим.   Явления Облачность Т
(°С)
Тd
(°С)
f(%) Тe
(°С)
Pmin
(гПа)
dP
(гПа)
Po
(мм)
O2
(г/м3)
Тmin Tmax R s Состояние
почвы
09 22.11.17 050 (СВ) 20000 м    9/9 600 м кучево-дожд. 
[Cb cap]
-6.3 -9.1 80 -10  1017.6  1.2  761  315           
12 22.11.17 040 (СВ) 20000 м    9/9 660 м кучево-дожд. 
[Cb cap]
-5.5 -8.6 79 -8  1018.5  0.9  762  314           
15 22.11.17 050 (СВ) 50000 м    9/9 930 м кучево-дожд. 
[Cb cap]
-4.7 -8.2 76 -6  1019.2  0.7  763  314           
18 22.11.17 020 (С) 50000 м    10/10 630 м 
[Sc]
-4.5 -8.1 76 -8  1020  0.8  763  314    -4.2       
21 22.11.17 040 (СВ) 50000 м    10/10 660 м 
[Sc]
-4.8 -8.5 75 -7  1020.9  0.9  764  314           
00 23.11.17 030 (СВ) 50000 м    10/10 630 м 
[Sc]
-5.5 -9 76 -9  1021.8  0.8  764  315           
03 23.11.17 050 (СВ) 50000 м    8/8 700 м 
[Sc]
-7 -10.1 79 -8  1022.2  0.4  765  317  -7         
06 23.11.17 070 (В) 50000 м    1/1 600 м 
[Sc]
-7.2 -9.5 84 -10  1021.9  -0.2  765  317  -7.4      равномерный
сухой снег
100% 
09 23.11.17 100 (В) 50000 м    9/4 600 м средняя, верхняя 
[Sc|Ac trans|Ci]
-6.3 -8.7 83 -10  1022.1  0.2  765  316           
12 23.11.17 100 (В) 50000 м    10/10 420 м 
[St]
-5.4 -7.8 83 -9  1020.8  -1.3  764  315           
15 23.11.17 110 (В) 40000 м    10/10 420 м 
[St]
-4.4 -6.8 83 -8  1019.6  -1.3  763  313           
18 23.11.17 140 (ЮВ) 7-12{13}  40000 м    10/10 600 м 
[Sc]
-2.1 -5.1 80 -6  1017.8  -1.7  762  310    -2.1       
21 23.11.17 150 (ЮВ) 6-11{14}  50000 м    10/10 600 м 
[Sc]
-1.1 -4.1 80 -5  1016.2  -1.6  760  308           
00 24.11.17 150 (ЮВ) 7-13{14}  3800 м  слаб. ливневой дождь  10/10 500 м кучево-дожд. 
[Cb cap]
-0.3 -3 82 -4  1014.2  -2  759  306           
03 24.11.17 150 (ЮВ) 6-10{13}  10 км  {ливн. осадки}  10/10 480 м кучево-дожд. 
[Cb cap]
+0.2 -1.8 86 -3  1012.4  -1.8  758  305  -4.3    0.0     
06 24.11.17 160 (Ю) 6-10{13}  50000 м  {ливн. осадки}  10/10 600 м кучево-дожд. 
[Cb cap]
+1.1 -1.4 83 -2  1011.8  -0.5  757  304  -2.1    0.0  равномерный
мокрый или
старый снег
100% 
09 24.11.17 170 (Ю) 4{10}  8000 м  в посл. час ливневой дождь  10/10 630 м кучево-дожд. 
[Cb cap]
+1.3 -0.9 85 -1  1011.9  757  304           
12 24.11.17 160 (Ю) 4{10}  30000 м  {ливн. осадки}  10/10 630 м кучево-дожд. 
[Cb cap]
+1.5 -0.9 84 -1  1011.9  0.1  757  304           
15 24.11.17 160 (Ю) 8000 м  слаб. ливневой дождь  10/10 660 м кучево-дожд. 
[Cb cap]
+1.7 -0.6 85 1011.8  -0.2  757  303         
18 24.11.17 160 (Ю) 12000 м  {ливн. осадки}  10/10 300 м 
[St]
+2.1 -0.1 85 +1  1011.5  -0.3  757  303    +2.1     
21 24.11.17 160 (Ю) 6000 м  слаб. морось  10/10 270 м 
[St]
+2.3 +0.8 90 +1  1011.6  0.2  757  302           
00 25.11.17 140 (ЮВ) 5000 м  слаб. морось  10/10 210 м 
[St]
+2.4 +1.1 91 1009.9  -1.7  756  302           
03 25.11.17 160 (Ю) 4{10}  5000 м  слаб. ливневой дождь{морось}  10/10 240 м кучево-дожд. 
[Cb cap]
+1.5 +0.1 90 -1  1008.6  -1.3  755  302  +1.5       
06 25.11.17 160 (Ю) 4800 м  слаб. ливневой дождь со снегом{морось}  10/10 400 м кучево-дожд. 
[Cb cap]
+1.1 -0.5 89 -1  1007.3  -1.4  754  303  +0.5    равномерный
мокрый или
старый снег
100% 
09 25.11.17 180 (Ю) 5000 м  дымка{ливн. осадки}  10/10 420 м кучево-дожд. 
[Cb cap]
+1.5 +0.1 90 +1  1007.1  -0.1  754  302           
Время (UTC), дата Ветер
(°,м/с) 
Видим.   Явления Облачность Т
(°С)
Тd
(°С)
f(%) Тe
(°С)
Pmin
(гПа)
dP
(гПа)
Po
(мм)
O2
(г/м3)
Тmin Tmax R s Состояние
почвы

Для получения пояснительной информации подведите курсор к названию столбца.

ПОГОДА в Сортавале - архив

Всё, что Вы хотите узнать о погоде в Сортавале - удобно и подробно!

Выберите нужную дату (начиная с 1 января 2015* года) и нажмите кнопку "Найти".
Будут отображены архивные сводки погоды по пункту Сортавала, начиная с указанной даты.


Отображать данные в формате CSV (для использования в таблицах Excel)


Внимание! Наш архив погоды предназначен исключительно для личного некоммерческого использования в познавательных целях. Если Вам необходимы официальные справки о состоянии погоды (для производственных, юридических, коммерческих и т.п. целей), обращайтесь в органы Росгидромета.

*Примечание: данная дата относится к архиву по метеостанциям СССР (Россия, СНГ, Балтия).
Архив по метеостанциям Зарубежной Европы и Азии (кроме Китая) хранится 10 дней, по другим регионам земного шара (Китай, Африка, Америка, Австралия, Океания) - 1 день.

Сортавала - район местоположения метеостанции


Название, широта, долгота, высота метеостанции:
Сортавала 61.7°ш. 30.7°д. 19 м над ур. моря [Российская Федерация]

Дополнительная информация

В oтличие oт бoльшинства пoгoдных сайтoв мы публикуем пoдрoбную метеoинфoрмацию в детальнoм прoфессиoнальнoм фoрмате.

Характеристики температуры и влажнoсти вoздуха измеряются на высoте 2 м в тени вдали oт зданий и деревьев.
Скoрoсть ветра измеряется на высoте 10 м (на урoвне рoста челoвека скoрoсть ветра ниже в 1.5-2 раза). Если метеoстанция нахoдится в гoрoде или в лесу, тo скoрoсть ветра занижена на 2-4 м/с пo сравнению с oткрытым местoм. Скoрoсть ветра над акватoриями крупных рек и oзёр, а также на вершинах хoлмoв на 2-5 м/с выше, чем в oбычных услoвиях.
Атмoсфернoе давление в разных тoчках местнoсти мoжет значительнo oтличаться oт давления на метеoстанции, в зависимoсти oт услoвий рельефа (при пoдъёме на 10 м давление пoнижается примернo на 1 мм рт.ст.).